Location: Alpha Ridge Park
(39.3209°N, 76.9128°W)
Time: 21:39:48
(UTC-04:00)

Vanguard 2 Rocket - Pass Details

Date: 27 May 2019
Orbit: 554 x 3326 km, 32.9° (Epoch: 17 June)

Event Time Altitude Azimuth Distance (km) Brightness Sun altitude
Rises 07:59:56 0° 261° (W) 7,229 10.9 23.7°
Reaches altitude 10° 08:05:09 10° 259° (W) 6,034 10.6 24.7°
Maximum altitude 08:22:44 67° 182° (S) 2,413 9.4 28.1°
Drops below altitude 10° 08:33:04 10° 103° (ESE) 3,744 11.4 30.1°
Sets 08:35:32 0° 100° (E) 4,436 11.5 30.5°
